TIANLIAN 2-02

Last updated on Thu Nov 21 2024 00:02:44 GMT+0000 (Coordinated Universal Time)

1 50005U 21124A 24325.54661123 -.00000013 00000+0 00000+0 0 9997 2 50005 0.2674 273.6596 0004192 347.1859 166.9537 1.00271492 10860
UTC large
Height (km)
Speed (km/s)
/
Latitude / Longitude
Inclination (degrees)
Orbital Period (minutes)
Azimuth
Elevation
Range (km)
Doppler Factor

Next 0 passes for location: London (51.5072 / 0.1276)

Sorry there are no passes over London.